Location: Liberec
(50.7830°N, 15.0500°E)
Time: 02:41:33
(UTC+01:00)

ISS - Pass Details

Date: 08 October 2020
Orbit: 417 x 420 km, 51.6° (Epoch: 25 October)

Event Time Altitude Azimuth Distance (km) Brightness Sun altitude
Rises 18:46:21 0° 283° (WNW) 2,368 1.8 -4.7°
Reaches altitude 10° 18:48:52 10° 264° (W) 1,501 1.0 -5.1°
Maximum altitude 18:51:16 18° 218° (SW) 1,090 -1.0 -5.5°
Drops below altitude 10° 18:53:40 10° 172° (S) 1,495 -1.0 -5.9°
Sets 18:56:11 0° 154° (SSE) 2,355 -0.2 -6.3°
